Location: Granada Hills
(34.2650°N, 118.5220°W)
Time: 09:31:58
(UTC-08:00)

deb Kosmos-1763 - Visible Passes

Search period start: 06 March 2015 00:00
Search period end: 16 March 2015 01:00
Orbit: 543 x 562 km, 74.0° (Epoch: 05 March)

Date Brightness Start Highest point End Pass type
(mag) Time Alt. Az. Time Alt. Az. Time Alt. Az.
10 Mar 7.4 06:44:03 10° NNE 06:46:35 16° ENE 06:49:15 10° ESE visible
11 Mar 7.3 06:39:52 10° NNE 06:42:51 20° ENE 06:45:57 10° ESE visible
12 Mar 7.0 06:35:45 10° N 06:39:06 24° ENE 06:42:30 10° ESE visible
12 Mar 4.4 20:28:33 10° S 20:32:07 52° SE 20:32:07 52° SE visible
13 Mar 6.6 06:31:40 10° N 06:35:17 30° ENE 06:38:56 10° SE visible
13 Mar 4.2 20:24:34 10° S 20:28:36 71° ESE 20:32:41 10° NNE visible
14 Mar 6.1 06:27:36 10° N 06:31:26 37° ENE 06:35:16 10° SE visible
14 Mar 4.2 20:20:37 10° SSW 20:24:40 89° W 20:28:47 10° NNE visible
15 Mar 5.6 06:23:34 10° N 06:27:33 46° ENE 06:31:31 10° SE visible
15 Mar 4.6 20:16:42 10° SSW 20:20:44 70° WNW 20:24:49 10° NNE visible
